TimeEST,TemperatureF,Dew PointF,Humidity,Sea Level PressureIn,VisibilityMPH,Wind Direction,Wind SpeedMPH,Gust SpeedMPH,PrecipitationIn,Events,Conditions,WindDirDegrees,DateUTC
12:06 AM,46.4,37.4,71,30.24,10.0,Calm,Calm,-,N/A,,Overcast,0,2012-11-20 05:06:00
12:24 AM,46.4,39.2,76,30.24,10.0,Calm,Calm,-,N/A,,Overcast,0,2012-11-20 05:24:00
1:09 AM,46.4,39.2,76,30.23,10.0,Calm,Calm,-,N/A,,Overcast,0,2012-11-20 06:09:00
1:33 AM,46.4,41.0,81,30.22,10.0,Calm,Calm,-,N/A,,Overcast,0,2012-11-20 06:33:00
1:54 AM,46.4,41.0,81,30.21,10.0,Calm,Calm,-,N/A,,Overcast,0,2012-11-20 06:54:00
2:36 AM,46.4,41.0,81,30.22,10.0,NW,3.5,-,N/A,,Overcast,320,2012-11-20 07:36:00
2:57 AM,46.4,41.0,81,30.21,10.0,NNW,3.5,-,N/A,,Overcast,340,2012-11-20 07:57:00
3:18 AM,46.4,41.0,81,30.21,10.0,Calm,Calm,-,N/A,,Overcast,0,2012-11-20 08:18:00
4:21 AM,46.4,41.0,81,30.21,10.0,Calm,Calm,-,N/A,,Overcast,0,2012-11-20 09:21:00
4:36 AM,46.4,41.0,81,30.21,10.0,Calm,Calm,-,N/A,,Overcast,0,2012-11-20 09:36:00
5:45 AM,46.4,41.0,81,30.21,10.0,Calm,Calm,-,N/A,,Mostly Cloudy,0,2012-11-20 10:45:00
6:45 AM,42.8,39.2,87,30.21,10.0,Calm,Calm,-,N/A,,Mostly Cloudy,0,2012-11-20 11:45:00
8:45 AM,46.4,39.2,76,30.21,10.0,NNW,4.6,-,N/A,,Scattered Clouds,330,2012-11-20 13:45:00
9:45 AM,48.2,41.0,76,30.20,10.0,NNE,5.8,-,N/A,,Scattered Clouds,20,2012-11-20 14:45:00
10:45 AM,50.0,41.0,71,30.20,10.0,Calm,Calm,-,N/A,,Scattered Clouds,0,2012-11-20 15:45:00
11:45 AM,50.0,42.8,76,30.17,10.0,Calm,Calm,-,N/A,,Scattered Clouds,0,2012-11-20 16:45:00
12:45 PM,50.0,42.8,76,30.15,10.0,Calm,Calm,-,N/A,,Mostly Cloudy,0,2012-11-20 17:45:00
1:45 PM,53.6,44.6,72,30.13,10.0,Calm,Calm,-,N/A,,Mostly Cloudy,0,2012-11-20 18:45:00
2:45 PM,50.0,44.6,82,30.13,10.0,SE,4.6,-,N/A,,Mostly Cloudy,130,2012-11-20 19:45:00
3:45 PM,50.0,42.8,76,30.12,10.0,East,3.5,-,N/A,,Mostly Cloudy,90,2012-11-20 20:45:00
4:45 PM,48.2,42.8,82,30.12,10.0,Calm,Calm,-,N/A,,Mostly Cloudy,0,2012-11-20 21:45:00
5:55 PM,48.2,42.8,82,30.14,10.0,Calm,Calm,-,N/A,,Mostly Cloudy,0,2012-11-20 22:55:00
6:45 PM,48.2,44.6,87,30.15,10.0,Calm,Calm,-,N/A,,Mostly Cloudy,0,2012-11-20 23:45:00
7:45 PM,46.4,41.0,81,30.15,10.0,Calm,Calm,-,N/A,,Scattered Clouds,0,2012-11-21 00:45:00
8:45 PM,41.0,39.2,93,30.15,10.0,Calm,Calm,-,N/A,,Scattered Clouds,0,2012-11-21 01:45:00
9:21 PM,41.0,39.2,93,30.15,10.0,Calm,Calm,-,N/A,,Clear,0,2012-11-21 02:21:00
9:45 PM,37.4,37.4,100,30.15,7.0,Calm,Calm,-,N/A,,Scattered Clouds,0,2012-11-21 02:45:00
10:06 PM,39.2,37.4,93,30.15,10.0,Calm,Calm,-,N/A,,Clear,0,2012-11-21 03:06:00
10:27 PM,41.0,37.4,87,30.15,10.0,Calm,Calm,-,N/A,,Clear,0,2012-11-21 03:27:00
10:48 PM,41.0,37.4,87,30.16,10.0,Calm,Calm,-,N/A,,Clear,0,2012-11-21 03:48:00
11:09 PM,41.0,37.4,87,30.16,10.0,Calm,Calm,-,N/A,,Clear,0,2012-11-21 04:09:00
11:30 PM,41.0,37.4,87,30.16,10.0,Calm,Calm,-,N/A,,Clear,0,2012-11-21 04:30:00
11:51 PM,41.0,37.4,87,30.16,10.0,Calm,Calm,-,N/A,,Clear,0,2012-11-21 04:51:00